EW9807 Weather Reports


time (UTC)temp
C
wind
direction
speed
KPH
gust
KPH
rain 1hr
cm
rain 24hr
cm
rain mn
cm
humidity
%
barometer
mb
20260505070105 12 122 0.0 0.0 0.00 0.00 0.00 79 1014.9
20260505065056 12 122 0.0 0.0 0.00 0.00 0.00 78 1015.0
20260505064549 12 122 0.0 0.0 0.00 0.00 0.00 77 1014.9
20260505064100 13 122 0.0 1.6 0.00 0.00 0.00 76 1014.9
20260505063102 13 122 0.0 3.2 0.00 0.00 0.00 72 1015.0
20260505062548 14 122 0.0 0.0 0.00 0.00 0.00 71 1015.0
20260505062051 14 122 0.0 0.0 0.00 0.00 0.00 67 1015.0
20260505061602 13 122 0.0 0.0 0.00 0.00 0.00 69 1015.1
20260505061051 13 122 0.0 0.0 0.00 0.00 0.00 74 1015.1
20260505060543 13 122 0.0 0.0 0.00 0.00 0.00 73 1015.2
20260505060054 14 122 0.0 0.0 0.00 0.00 0.00 71 1015.2
20260505055559 14 119 0.0 0.0 0.00 0.00 0.00 68 1015.2
20260505055049 13 119 0.0 0.0 0.00 0.00 0.00 70 1015.2
20260505054556 13 110 0.0 0.0 0.00 0.00 0.00 73 1015.2
20260505054101 13 110 0.0 0.0 0.00 0.00 0.00 74 1015.2
20260505053552 13 110 0.0 0.0 0.00 0.00 0.00 75 1015.3
20260505053100 13 110 0.0 0.0 0.00 0.00 0.00 74 1015.3
20260505052550 13 95 0.0 0.0 0.00 0.00 0.00 73 1015.3
20260505052056 13 95 0.0 0.0 0.00 0.00 0.00 76 1015.3
20260505051547 13 95 0.0 0.0 0.00 0.00 0.00 75 1015.3
20260505051100 13 95 0.0 0.0 0.00 0.00 0.00 75 1015.2
20260505050554 13 95 0.0 0.0 0.00 0.00 0.00 73 1015.2
20260505041559 15 95 0.0 0.0 0.00 0.00 0.00 69 1015.2
20260505041047 15 95 0.0 0.0 0.00 0.00 0.00 66 1015.3
20260505040557 15 95 0.0 0.0 0.00 0.00 0.00 66 1015.3
20260505040135 15 95 0.0 0.0 0.00 0.00 0.00 66 1015.2
20260505035549 15 95 0.0 0.0 0.00 0.00 0.00 66 1015.2
20260505035056 15 95 0.0 0.0 0.00 0.00 0.00 66 1015.2
20260505034605 16 95 0.0 0.0 0.00 0.00 0.00 66 1015.2
20260505034052 16 95 0.0 0.0 0.00 0.00 0.00 65 1015.3
20260505033601 16 95 0.0 0.0 0.00 0.00 0.00 63 1015.4
20260505033048 16 95 0.0 0.0 0.00 0.00 0.00 65 1015.4
20260505032552 16 95 0.0 0.0 0.00 0.00 0.00 65 1015.4
20260505032101 16 95 0.0 0.0 0.00 0.00 0.00 64 1015.4
20260505031551 16 95 0.0 0.0 0.00 0.00 0.00 63 1015.3
20260505030555 16 95 0.0 1.6 0.00 0.00 0.00 64 1015.4
20260505030507 16 95 0.0 1.6 0.00 0.00 0.00 64 1014.9
20260505030133 16 95 0.0 1.6 0.00 0.00 0.00 63 1015.4
20260505030034 16 95 0.0 1.6 0.00 0.00 0.00 63 1014.9
20260505025553 16 95 0.0 1.6 0.00 0.00 0.00 62 1015.4
20260505025055 17 95 0.0 1.6 0.00 0.00 0.00 62 1015.3
20260505024548 17 95 0.0 1.6 0.00 0.00 0.00 61 1015.4
20260505023548 18 95 0.0 1.6 0.00 0.00 0.00 58 1015.4
20260505023057 18 95 0.0 1.6 0.00 0.00 0.00 58 1015.3
20260505022602 18 95 0.0 3.2 0.00 0.00 0.00 57 1015.2
20260505022052 18 95 0.0 3.2 0.00 0.00 0.00 57 1015.2
20260505021558 18 95 0.0 1.6 0.00 0.00 0.00 57 1015.3
20260505020559 18 95 0.0 3.2 0.00 0.00 0.00 57 1015.3
20260505020052 18 95 0.0 3.2 0.00 0.00 0.00 58 1015.2
20260505015555 17 179 0.0 3.2 0.00 0.00 0.00 59 1015.2
20260505015044 17 179 1.6 3.2 0.00 0.00 0.00 60 1015.0
20260505014558 17 179 0.0 0.0 0.00 0.00 0.00 59 1015.0
20260505014046 18 179 0.0 0.0 0.00 0.00 0.00 58 1015.0
20260505013552 18 179 0.0 0.0 0.00 0.00 0.00 57 1015.0
20260505013100 18 179 0.0 0.0 0.00 0.00 0.00 56 1014.9
20260505012545 18 179 0.0 0.0 0.00 0.00 0.00 55 1014.9
20260505012055 19 179 0.0 0.0 0.00 0.00 0.00 53 1014.9
20260505011546 19 179 0.0 0.0 0.00 0.00 0.00 53 1014.8
20260505010550 20 179 0.0 0.0 0.00 0.00 0.00 49 1014.7
20260505010056 21 179 0.0 1.6 0.00 0.00 0.00 48 1014.6
20260505005558 21 179 0.0 1.6 0.00 0.00 0.00 47 1014.7
20260505005048 21 179 0.0 4.8 0.00 0.00 0.00 46 1014.6
20260505004558 21 179 1.6 6.4 0.00 0.00 0.00 46 1014.6
20260505003558 21 175 3.2 9.7 0.00 0.00 0.00 45 1014.4
20260505002550 22 167 0.0 1.6 0.00 0.00 0.00 44 1014.3
20260505002059 22 167 0.0 3.2 0.00 0.00 0.00 44 1014.2
20260505001607 22 167 0.0 3.2 0.00 0.00 0.00 43 1014.3
20260505001053 22 166 1.6 3.2 0.00 0.00 0.00 44 1014.2
20260505000559 22 166 1.6 3.2 0.00 0.00 0.00 43 1014.2
20260504235558 23 180 0.0 4.8 0.00 0.00 0.00 41 1014.1
20260504235048 23 180 1.6 4.8 0.00 0.00 0.00 41 1014.1
20260504234552 23 143 1.6 4.8 0.00 0.00 0.00 41 1014.1
20260504234102 23 195 0.0 6.4 0.00 0.00 0.00 41 1014.1
20260504233553 23 184 1.6 8.0 0.00 0.00 0.00 40 1014.2
20260504233101 23 133 0.0 8.0 0.00 0.00 0.00 40 1014.2
20260504232545 23 131 1.6 8.0 0.00 0.00 0.00 39 1014.2
20260504232051 23 109 0.0 9.7 0.00 0.00 0.00 39 1014.2
20260504230602 23 188 3.2 8.0 0.00 0.00 0.00 39 1014.4
20260504230051 23 122 1.6 8.0 0.00 0.00 0.00 39 1014.4
20260504225555 23 195 3.2 8.0 0.00 0.00 0.00 38 1014.3
20260504225100 24 228 1.6 8.0 0.00 0.00 0.00 38 1014.3
20260504224547 24 144 1.6 12.9 0.00 0.00 0.00 39 1014.4
20260504224059 23 132 4.8 12.9 0.00 0.00 0.00 39 1014.4
20260504223546 24 234 3.2 8.0 0.00 0.00 0.00 38 1014.3
20260504223100 24 113 1.6 8.0 0.00 0.00 0.00 37 1014.4
20260504222058 24 194 4.8 8.0 0.00 0.00 0.00 38 1014.4
20260504221544 24 141 3.2 9.7 0.00 0.00 0.00 39 1014.4
20260504221057 24 120 3.2 9.7 0.00 0.00 0.00 38 1014.4
20260504220604 24 149 3.2 8.0 0.00 0.00 0.00 41 1014.4
20260504220057 24 188 3.2 8.0 0.00 0.00 0.00 38 1014.4
20260504215602 24 186 3.2 8.0 0.00 0.00 0.00 40 1014.4
20260504215052 24 105 1.6 12.9 0.00 0.00 0.00 38 1014.3
20260504214552 24 145 1.6 12.9 0.00 0.00 0.00 38 1014.2
20260504214100 24 188 3.2 9.7 0.00 0.00 0.00 37 1014.3
20260504213547 24 217 6.4 9.7 0.00 0.00 0.00 37 1014.3
20260504213054 23 131 4.8 9.7 0.00 0.00 0.00 37 1014.3
20260504212519 23 189 3.2 6.4 0.00 0.00 0.00 36 1013.8
20260504212047 24 154 3.2 8.0 0.00 0.00 0.00 36 1014.2
20260504211558 24 119 3.2 8.0 0.00 0.00 0.00 37 1014.2
20260504211048 24 144 1.6 9.7 0.00 0.00 0.00 37 1014.3
20260504210559 24 148 1.6 9.7 0.00 0.00 0.00 37 1014.3
20260504210116 24 186 3.2 11.3 0.00 0.00 0.00 36 1014.4
20260504205600 24 162 4.8 11.3 0.00 0.00 0.00 36 1014.5
20260504204552 24 181 3.2 8.0 0.00 0.00 0.00 39 1014.6
20260504204101 24 201 3.2 9.7 0.00 0.00 0.00 38 1014.6
20260504203547 25 220 3.2 9.7 0.00 0.00 0.00 37 1014.6
20260504203056 24 136 3.2 8.0 0.00 0.00 0.00 36 1014.6
20260504202602 24 192 4.8 9.7 0.00 0.00 0.00 37 1014.7
20260504202054 25 195 3.2 12.9 0.00 0.00 0.00 35 1014.8
20260504201542 25 242 3.2 16.1 0.00 0.00 0.00 34 1014.7
20260504201055 25 162 3.2 16.1 0.00 0.00 0.00 38 1014.8
20260504200546 24 200 3.2 8.0 0.00 0.00 0.00 35 1014.8
20260504200051 24 188 1.6 8.0 0.00 0.00 0.00 36 1014.9
20260504195558 24 47 1.6 11.3 0.00 0.00 0.00 36 1014.9
20260504195051 25 181 8.0 11.3 0.00 0.00 0.00 33 1015.0
20260504194558 25 206 3.2 12.9 0.00 0.00 0.00 33 1015.0
20260504194047 25 131 4.8 12.9 0.00 0.00 0.00 31 1015.1
20260504193052 25 217 3.2 8.0 0.00 0.00 0.00 36 1015.3
20260504192555 25 162 4.8 12.9 0.00 0.00 0.00 39 1015.4
20260504192103 25 186 4.8 12.9 0.00 0.00 0.00 40 1015.4
20260504191555 24 167 3.2 4.8 0.00 0.00 0.00 37 1015.6
20260504191106 25 227 1.6 8.0 0.00 0.00 0.00 37 1015.6
20260504190553 25 189 4.8 8.0 0.00 0.00 0.00 40 1015.6
20260504185549 25 255 6.4 12.9 0.00 0.00 0.00 37 1015.8
20260504185057 25 229 4.8 12.9 0.00 0.00 0.00 40 1015.8
20260504184601 24 101 1.6 11.3 0.00 0.00 0.00 38 1015.9
20260504184050 24 214 3.2 8.0 0.00 0.00 0.00 38 1016.0
20260504183602 25 209 3.2 11.3 0.00 0.00 0.00 39 1016.0
20260504182602 24 176 3.2 6.4 0.00 0.00 0.00 37 1016.2
20260504182052 24 148 0.0 8.0 0.00 0.00 0.00 37 1016.2
20260504181544 25 167 3.2 12.9 0.00 0.00 0.00 35 1016.3
20260504181055 25 189 6.4 12.9 0.00 0.00 0.00 35 1016.4
20260504180602 25 152 6.4 11.3 0.00 0.00 0.00 39 1016.4
20260504180109 24 202 3.2 11.3 0.00 0.00 0.00 39 1016.4
20260504175552 23 172 1.6 11.3 0.00 0.00 0.00 38 1016.5
20260504175103 23 82 3.2 9.7 0.00 0.00 0.00 39 1016.5
20260504174553 24 196 4.8 11.3 0.00 0.00 0.00 41 1016.7
20260504173555 24 155 3.2 9.7 0.00 0.00 0.00 42 1016.8
20260504173101 23 169 3.2 9.7 0.00 0.00 0.00 43 1016.8
20260504172549 23 202 0.0 9.7 0.00 0.00 0.00 41 1016.9
20260504172100 23 219 4.8 9.7 0.00 0.00 0.00 41 1017.0
20260504171551 22 46 1.6 4.8 0.00 0.00 0.00 41 1017.1
20260504171058 22 47 3.2 6.4 0.00 0.00 0.00 42 1017.1
20260504170550 23 130 3.2 6.4 0.00 0.00 0.00 42 1017.1
20260504170504 22 187 3.2 6.4 0.00 0.00 0.00 42 1016.7
20260504170134 23 288 1.6 8.0 0.00 0.00 0.00 42 1017.1
20260504151052 20 195 6.4 12.9 0.00 0.00 0.00 46 1018.3
20260504150543 20 176 1.6 6.4 0.00 0.00 0.00 48 1018.2
20260504141054 17 165 4.8 8.0 0.00 0.00 0.00 64 1018.6
20260504140546 16 212 1.6 8.0 0.00 0.00 0.00 66 1018.7
20260504130545 12 184 1.6 3.2 0.00 0.00 0.00 78 1018.5
20260504110553 6 295 0.0 0.0 0.00 0.00 0.00 93 1017.8
20260504110508 6 295 0.0 0.0 0.00 0.00 0.00 93 1017.6
20260504110135 6 295 0.0 0.0 0.00 0.00 0.00 93 1017.7
20260504100555 7 169 0.0 0.0 0.00 0.00 0.00 93 1017.7
20260504081600 7 169 0.0 0.0 0.00 0.00 0.00 90 1018.0